Tracking 17149 objects as of 22-May-2015
HD Live streaming from Space Station

FALCON 9 R/B

Track FALCON 9 R/B now!
10-day predictions
FALCON 9 R/B is classified as:


NORAD ID: 37253
Int'l Code: 2010-066K
Perigee: 292.2 km
Apogee: 10,438.4 km
Inclination: 34.5 °
Period: 210.9 minutes
Semi major axis: 11736 km
RCS: 20.0149 m2 (large)
Launch date: December 8, 2010
Source: United States (US)

Note: This is a ROCKET BODY
Your satellite tracking list
Your tracking list is empty





NASA's NSSDC Master Catalog

Two Line Element Set (TLE):
1 37253U 10066K   15142.15399366  .00012262  00000-0  10803-2 0  9995
2 37253 034.5307 033.4880 4322557 012.1526 355.6532 06.82819048108559

Source of the keplerian elements: AFSPC

N2YO: 365